• In Österreich
  • Länderverzeichnis
  • Für 7 Tage
  • Wassertemperatur
  • Satellitenkarten
  • Wetterkarte
  • News
  • Widgets
  • user-avatar
    Anmelden

    Stündliche Wetter Innsbruck

    Heute, 20 Mai, Sonntag

    Zeit Temperatur Niederschläge Wind Luftdruck Luftfeuchtigkeit
    00:00 +2°C° 0,4 mm 0 m/S 596 mmHg 96%
    01:00 +3°C° 0 mm 1 m/S 596 mmHg 96%
    02:00 +2°C° 0,1 mm 1 m/S 596 mmHg 96%
    03:00 +2°C° 0,1 mm 1 m/S 596 mmHg 95%
    04:00 +2°C° 0,1 mm 1 m/S 596 mmHg 95%
    05:00 +3°C° 0,2 mm 1 m/S 596 mmHg 94%
    06:00 +4°C° 0,2 mm 1 m/S 596 mmHg 93%
    07:00 +4°C° 0,2 mm 1 m/S 597 mmHg 92%
    08:00 +6°C° 0,3 mm 1 m/S 597 mmHg 88%
    09:00 +7°C° 0,3 mm 1 m/S 597 mmHg 84%
    10:00 +8°C° 0,3 mm 1 m/S 598 mmHg 80%
    11:00 +8°C° 0,5 mm 1 m/S 598 mmHg 79%
    12:00 +9°C° 0,5 mm 1 m/S 598 mmHg 77%
    13:00 +9°C° 0,5 mm 1 m/S 598 mmHg 76%
    14:00 +8°C° 0,8 mm 2 m/S 598 mmHg 77%
    15:00 +8°C° 0,8 mm 2 m/S 597 mmHg 79%
    16:00 +8°C° 0,8 mm 2 m/S 597 mmHg 80%
    17:00 +8°C° 0,7 mm 1 m/S 597 mmHg 84%
    18:00 +8°C° 0,7 mm 1 m/S 597 mmHg 87%
    19:00 +7°C° 0,7 mm 1 m/S 596 mmHg 90%
    20:00 +5°C° 0,2 mm 2 m/S 596 mmHg 92%
    21:00 +4°C° 0,2 mm 2 m/S 596 mmHg 93%
    22:00 +3°C° 0,2 mm 2 m/S 596 mmHg 94%
    23:00 +2°C° 0 mm 2 m/S 595 mmHg 95%

    Morgen, 21 Mai, Montag

    Zeit Temperatur Niederschläge Wind Luftdruck Luftfeuchtigkeit
    00:00 +2°C° 0 mm 2 m/S 595 mmHg 95%
    01:00 +1°C° 0 mm 2 m/S 595 mmHg 95%
    02:00 +1°C° 0 mm 2 m/S 595 mmHg 94%
    03:00 +1°C° 0 mm 2 m/S 594 mmHg 94%
    04:00 -1°C° 0 mm 2 m/S 594 mmHg 94%
    05:00 +2°C° 0 mm 2 m/S 595 mmHg 90%
    06:00 +3°C° 0 mm 2 m/S 595 mmHg 87%
    07:00 +4°C° 0 mm 2 m/S 595 mmHg 84%
    08:00 +7°C° 0 mm 2 m/S 596 mmHg 74%
    09:00 +10°C° 0 mm 1 m/S 597 mmHg 65%
    10:00 +12°C° 0 mm 1 m/S 598 mmHg 56%
    11:00 +12°C° 0,1 mm 1 m/S 598 mmHg 55%
    12:00 +13°C° 0,1 mm 2 m/S 598 mmHg 54%
    13:00 +13°C° 0,1 mm 2 m/S 598 mmHg 54%
    14:00 +13°C° 0,7 mm 2 m/S 597 mmHg 58%
    15:00 +12°C° 0,7 mm 1 m/S 597 mmHg 63%
    16:00 +12°C° 0,7 mm 1 m/S 596 mmHg 67%
    17:00 +11°C° 0,7 mm 1 m/S 596 mmHg 73%
    18:00 +10°C° 0,7 mm 1 m/S 595 mmHg 79%
    19:00 +8°C° 0,7 mm 1 m/S 595 mmHg 84%
    20:00 +7°C° 0,5 mm 1 m/S 594 mmHg 87%
    21:00 +5°C° 0,5 mm 2 m/S 594 mmHg 90%
    22:00 +4°C° 0,5 mm 2 m/S 594 mmHg 93%
    23:00 +3°C° 0,2 mm 2 m/S 594 mmHg 93%

    übermorgen, 22 Mai, Dienstag

    Zeit Temperatur Niederschläge Wind Luftdruck Luftfeuchtigkeit
    00:00 +3°C° 0,2 mm 2 m/S 593 mmHg 93%
    01:00 +3°C° 0,2 mm 2 m/S 593 mmHg 94%
    02:00 +2°C° 0 mm 2 m/S 593 mmHg 94%
    03:00 +2°C° 0 mm 2 m/S 593 mmHg 93%
    04:00 +2°C° 0 mm 2 m/S 593 mmHg 93%
    05:00 +3°C° 0 mm 2 m/S 593 mmHg 89%
    06:00 +5°C° 0 mm 1 m/S 594 mmHg 86%
    07:00 +7°C° 0 mm 1 m/S 595 mmHg 82%
    08:00 +8°C° 0,1 mm 1 m/S 595 mmHg 75%
    09:00 +10°C° 0,1 mm 1 m/S 596 mmHg 68%
    10:00 +12°C° 0,1 mm 1 m/S 597 mmHg 61%
    11:00 +12°C° 0,7 mm 1 m/S 597 mmHg 62%
    12:00 +12°C° 0,7 mm 1 m/S 597 mmHg 62%
    13:00 +12°C° 0,7 mm 1 m/S 597 mmHg 63%
    14:00 +12°C° 1,1 mm 1 m/S 597 mmHg 66%
    15:00 +12°C° 1,1 mm 1 m/S 597 mmHg 69%
    16:00 +11°C° 1,1 mm 1 m/S 596 mmHg 71%
    17:00 +10°C° 0,8 mm 1 m/S 596 mmHg 76%
    18:00 +9°C° 0,8 mm 1 m/S 596 mmHg 81%
    19:00 +8°C° 0,8 mm 1 m/S 596 mmHg 85%
    20:00 +7°C° 0,5 mm 1 m/S 596 mmHg 88%
    21:00 +7°C° 0,5 mm 1 m/S 596 mmHg 90%
    22:00 +6°C° 0,5 mm 1 m/S 596 mmHg 92%
    23:00 +5°C° 0,1 mm 1 m/S 595 mmHg 92%

    23 Mai, Mittwoch

    Zeit Temperatur Niederschläge Wind Luftdruck Luftfeuchtigkeit
    00:00 +5°C° 0,1 mm 1 m/S 595 mmHg 93%
    01:00 +4°C° 0,1 mm 1 m/S 595 mmHg 93%
    02:00 +4°C° 0,1 mm 1 m/S 595 mmHg 93%
    03:00 +4°C° 0,1 mm 1 m/S 595 mmHg 93%
    04:00 +3°C° 0,1 mm 1 m/S 595 mmHg 93%
    05:00 +5°C° 0,1 mm 1 m/S 596 mmHg 90%
    06:00 +6°C° 0,1 mm 1 m/S 597 mmHg 87%
    07:00 +8°C° 0,1 mm 1 m/S 598 mmHg 83%
    08:00 +9°C° 0,2 mm 1 m/S 598 mmHg 78%
    09:00 +11°C° 0,2 mm 1 m/S 599 mmHg 74%
    10:00 +12°C° 0,2 mm 1 m/S 600 mmHg 69%
    11:00 +13°C° 0,9 mm 1 m/S 600 mmHg 68%
    12:00 +13°C° 0,9 mm 1 m/S 600 mmHg 67%
    13:00 +13°C° 0,9 mm 1 m/S 600 mmHg 67%
    14:00 +13°C° 1,6 mm 1 m/S 599 mmHg 69%
    15:00 +13°C° 1,6 mm 1 m/S 599 mmHg 71%
    16:00 +13°C° 1,6 mm 1 m/S 599 mmHg 73%
    17:00 +12°C° 1,1 mm 1 m/S 599 mmHg 79%
    18:00 +11°C° 1,1 mm 1 m/S 599 mmHg 85%
    19:00 +10°C° 1,1 mm 1 m/S 598 mmHg 91%
    20:00 +9°C° 0,7 mm 1 m/S 598 mmHg 92%
    21:00 +7°C° 0,7 mm 1 m/S 598 mmHg 93%
    22:00 +6°C° 0,7 mm 1 m/S 597 mmHg 94%
    23:00 +6°C° 0,1 mm 1 m/S 597 mmHg 94%

    24 Mai, Donnerstag

    Zeit Temperatur Niederschläge Wind Luftdruck Luftfeuchtigkeit
    00:00 +6°C° 0,1 mm 1 m/S 597 mmHg 94%
    01:00 +5°C° 0,1 mm 1 m/S 597 mmHg 93%
    02:00 +5°C° 0,1 mm 1 m/S 597 mmHg 93%
    03:00 +5°C° 0,1 mm 1 m/S 597 mmHg 93%
    04:00 +4°C° 0,1 mm 1 m/S 596 mmHg 93%
    05:00 +6°C° 0 mm 1 m/S 597 mmHg 89%
    06:00 +7°C° 0 mm 0 m/S 598 mmHg 86%
    07:00 +8°C° 0 mm 0 m/S 599 mmHg 82%
    08:00 +11°C° 0,1 mm 1 m/S 600 mmHg 76%
    09:00 +13°C° 0,1 mm 1 m/S 600 mmHg 69%
    10:00 +14°C° 0,1 mm 1 m/S 601 mmHg 63%
    11:00 +14°C° 0,9 mm 1 m/S 601 mmHg 64%
    12:00 +14°C° 0,9 mm 2 m/S 601 mmHg 65%
    13:00 +15°C° 0,9 mm 2 m/S 600 mmHg 66%
    14:00 +14°C° 1,4 mm 2 m/S 600 mmHg 68%
    15:00 +14°C° 1,4 mm 2 m/S 600 mmHg 70%
    16:00 +14°C° 1,4 mm 2 m/S 600 mmHg 73%
    17:00 +13°C° 1,1 mm 2 m/S 599 mmHg 78%
    18:00 +12°C° 1,1 mm 1 m/S 599 mmHg 84%
    19:00 +11°C° 1,1 mm 1 m/S 599 mmHg 89%
    20:00 +9°C° 0,3 mm 1 m/S 598 mmHg 92%
    21:00 +8°C° 0,3 mm 1 m/S 598 mmHg 94%
    22:00 +6°C° 0,3 mm 0 m/S 597 mmHg 96%
    23:00 +6°C° 0 mm 1 m/S 597 mmHg 96%

    25 Mai, Freitag

    Zeit Temperatur Niederschläge Wind Luftdruck Luftfeuchtigkeit
    00:00 +6°C° 0 mm 1 m/S 597 mmHg 96%
    01:00 +5°C° 0 mm 1 m/S 597 mmHg 95%
    02:00 +5°C° 0 mm 1 m/S 596 mmHg 95%
    03:00 +5°C° 0 mm 1 m/S 596 mmHg 95%
    04:00 +5°C° 0 mm 1 m/S 596 mmHg 95%
    05:00 +6°C° 0 mm 1 m/S 597 mmHg 91%
    06:00 +7°C° 0 mm 0 m/S 598 mmHg 87%
    07:00 +9°C° 0 mm 0 m/S 598 mmHg 84%
    08:00 +12°C° 0 mm 1 m/S 599 mmHg 76%
    09:00 +13°C° 0 mm 1 m/S 599 mmHg 67%
    10:00 +15°C° 0 mm 1 m/S 600 mmHg 59%
    11:00 +15°C° 0,4 mm 2 m/S 600 mmHg 59%
    12:00 +15°C° 0,4 mm 2 m/S 600 mmHg 59%
    13:00 +15°C° 0,4 mm 2 m/S 600 mmHg 59%
    14:00 +15°C° 1,4 mm 2 m/S 599 mmHg 64%
    15:00 +14°C° 1,4 mm 2 m/S 599 mmHg 68%
    16:00 +14°C° 1,4 mm 2 m/S 598 mmHg 73%
    17:00 +13°C° 1,1 mm 2 m/S 598 mmHg 78%
    18:00 +12°C° 1,1 mm 2 m/S 598 mmHg 84%
    19:00 +9°C° 1,1 mm 2 m/S 597 mmHg 89%
    20:00 +9°C° 0,3 mm 1 m/S 597 mmHg 92%
    21:00 +8°C° 0,3 mm 1 m/S 597 mmHg 94%
    22:00 +7°C° 0,3 mm 1 m/S 597 mmHg 96%
    23:00 +6°C° 0,1 mm 1 m/S 596 mmHg 96%
    Mehr zeigen